Tracking 28790 objects as of 19-Apr-2024
HD Live streaming from Space Station
objects crossing your sky now

METEOR 2-8 DEB

Track METEOR 2-8 DEB now!
10-day predictions


NORAD ID: 36862
Int'l Code: 1982-025AZ
Perigee: 837.7 km
Apogee: 864.1 km
Inclination: 82.5 °
Period: 101.8 minutes
Semi major axis: 7221 km
RCS: 0.0072 m2 (small)
Launch date: March 25, 1982
Source: Commonwealth of Independent States (former USSR) (CIS)
Launch site: PLESETSK MISSILE AND SPACE COMPLEX (PKMTR)

Note: This is SATELLITE DEBRIS
Your satellite tracking list
Your tracking list is empty




NASA's NSSDC Master Catalog

Two Line Element Set (TLE):
1 36862U 82025AZ  24099.02225635  .00004625  00000-0  23972-2 0  9993
2 36862  82.5443 200.7954 0018315  74.4021 285.9176 14.14574751502202
Source of the keplerian elements: AFSPC